WB0RXX Weather Reports


Display with metric or nautical units.
time (UTC)temp
F
wind
direction
speed
MPH
gust
MPH
rain 1hr
in
rain 24hr
in
rain mn
in
humidity
%
barometer
mb
20260902220005 84 129 6.0 10.0 0.00 0.03 0.03 69 1010.4
20260902215004 84 89 5.0 9.0 0.00 0.03 0.03 68 1010.4
20260902212003 84 58 5.0 10.0 0.00 0.03 0.03 68 1010.7
20260902210004 84 73 4.0 7.0 0.00 0.03 0.03 68 1010.9
20260902205004 84 81 3.0 9.0 0.00 0.03 0.03 68 1010.9
20260902202004 84 73 3.0 5.0 0.00 0.03 0.03 67 1011.2
20260902201004 84 105 3.0 6.0 0.00 0.03 0.03 68 1011.2
20260902192004 83 87 4.0 7.0 0.00 0.03 0.03 70 1011.6
20260902191003 83 114 3.0 5.0 0.00 0.03 0.03 70 1011.8
20260902184004 82 104 2.0 5.0 0.00 0.03 0.03 71 1012.1
20260902180007 81 90 2.0 4.0 0.00 0.03 0.03 71 1012.3
20260902175004 81 140 4.0 6.0 0.00 0.03 0.03 72 1012.6
20260902174004 80 136 2.0 5.0 0.00 0.03 0.03 72 1012.7
20260902165005 80 135 3.0 7.0 0.00 0.03 0.03 73 1012.8
20260902163005 78 59 4.0 6.0 0.00 0.03 0.03 73 1012.7
20260902160007 76 108 2.0 4.0 0.00 0.03 0.03 78 1012.6
20260902154004 76 79 1.0 4.0 0.00 0.03 0.03 78 1012.9
20260902143003 71 139 3.0 3.0 0.00 0.03 0.03 83 1013.1
20260902135003 67 83 0.0 0.0 0.00 0.03 0.03 89 1013.7
20260902132005 67 63 1.0 2.0 0.00 0.03 0.03 87 1013.1
20260902120005 63 9 2.0 3.0 0.00 0.03 0.03 93 1013.0
20260902103004 65 22 1.0 2.0 0.00 0.01 0.01 92 1012.5
20260902082004 66 82 0.0 1.0 0.00 0.00 0.00 88 1012.7
20260902081005 66 82 0.0 0.0 0.00 0.00 0.00 86 1013.3
20260902080006 67 82 0.0 0.0 0.00 0.00 0.00 85 1013.4
20260902075006 67 82 0.0 0.0 0.00 0.00 0.00 84 1013.2
20260902070006 68 106 0.0 0.0 0.00 0.00 0.00 83 1012.2
20260902065004 68 94 1.0 3.0 0.00 0.00 0.00 83 1012.3
20260902064004 69 79 0.0 2.0 0.00 0.00 0.00 82 1012.4
20260902060003 70 31 0.0 0.0 0.00 0.00 0.00 82 1013.0
20260902052005 70 7 4.0 7.0 0.00 0.00 0.00 72 1012.5
20260902051006 71 28 3.0 5.0 0.00 0.00 0.00 70 1012.4
20260902040003 70 13 0.0 0.0 0.00 0.00 0.00 91 1014.1
20260902035004 70 13 0.0 0.0 0.00 0.00 0.00 90 1014.2
20260902034003 70 13 1.0 2.0 0.00 0.00 0.00 90 1013.7
20260902033005 71 47 1.0 2.0 0.00 0.00 0.00 90 1013.7
20260902031003 71 47 0.0 0.0 0.00 0.00 0.00 88 1014.2
20260902023003 73 47 0.0 1.0 0.00 0.00 0.00 84 1013.3
20260902022005 72 47 0.0 0.0 0.00 0.00 0.00 84 1013.4
20260902014005 73 22 0.0 0.0 0.00 0.00 0.00 86 1013.7
20260902012003 74 22 0.0 0.0 0.00 0.00 0.00 83 1013.6
20260902011003 74 22 0.0 0.0 0.00 0.00 0.00 81 1013.2
20260902005005 74 22 0.0 0.0 0.00 0.00 0.00 81 1013.1
20260902003003 75 22 0.0 0.0 0.00 0.00 0.00 83 1013.8
20260902000004 77 22 0.0 0.0 0.00 0.00 0.00 74 1013.7
20260901231002 78 22 0.0 0.0 0.00 0.00 0.00 67 1013.7
20260901222003 80 21 1.0 1.0 0.00 0.00 0.00 57 1013.8